Retour au catalogue

STARLINK-6199

ActifCommunicationsVLEO
NORAD 56551·PAYLOAD·🇺🇸 United States

Lancé May 14, 2023 depuis Cape Canaveral Space Force Station

Loading…

Prochains Passages (prochaines 24 heures)

TLE

FraisSource: CelesTrak SupGP

Époque: Sep 15, 2026, 02:28 UTC

1 56551C 23065BA  26258.10326389 -.00022026  00000+0 -79800-3 0  2581
2 56551  43.0021 233.9500 0001582 270.7306 305.5616 15.27580804    14

Suivez STARLINK-6199 en temps réel avec AllMySat

Download on the App Store